This demonstration page uses our WeatherBlox Daily Observations layout. Learn more.

41.86663, -103.66717

Hourly Observations for May 1, 2019

Temp ( °F °C ) Dew Point ( °F °C ) Humidity (%) Winds ( mph kmh ) Pressure ( in mb ) Visibility ( mi km ) Precip ( " mm )
12:53 am 00:53 Cloudy 33 0.6 32 0 96 96 ESE 10 17 29.97 1015 10 16.09344 0 0
1:22 am 01:22 Cloudy 34 1 32 0 93 93 ESE 13 20 30.03 1017 10 16.09344 0 0
1:53 am 01:53 Cloudy with Light Rain 33 0.6 33 0.6 100 100 ESE 15 24 29.94 1014 3 4.828032 0.001 0.001
2:51 am 02:51 Cloudy with Mist and Fog 34 1 34 1 100 100 ESE 16 26 30 1016 4 6.437376 0.01 0.254
2:53 am 02:53 Cloudy with Light Rain 33 0.6 33 0.6 100 100 ESE 15 24 29.91 1013 4 6.437376 0.01 0.254
3:48 am 03:48 Cloudy with Light Snow 34 1 34 1 100 100 SE 5 7 30.03 1017 2 3.218688 0 0
3:49 am 03:49 Cloudy with Light Snow 33 0.6 33 0.6 100 100 ESE 5 7 29.97 1015 2 3.218688 0.03 0.762
3:55 am 03:55 Cloudy with Light Snow 33 0.6 32 0 96 96 ESE 6 9 30.03 1017 1.5 2.414016 0.02 0.508
4:36 am 04:36 Mostly Cloudy with Scattered Snow Showers 34 1 34 1 100 100 E 7 11 30.03 1017 1 1.609344 0 0
4:53 am 04:53 Mostly Cloudy with Scattered Snow Showers 33 0.6 33 0.6 100 100 E 10 17 29.97 1015 1 1.609344 0.1 2.54
5:08 am 05:08 Cloudy with Light Snow 34 1 34 1 100 100 E 14 22 30 1016 1.75 2.816352 0 0
5:25 am 05:25 Cloudy with Light Snow 33 0.6 32 0 96 96 E 13 20 30 1016 3 4.828032 0.02 0.508
5:29 am 05:29 Cloudy with Light Snow 33 0.6 32 0 96 96 E 14 22 30 1016 4 6.437376 0.02 0.508
5:42 am 05:42 Cloudy with Light Snow 34 1 32 0 93 93 E 9 15 30 1016 8 12.874752 0 0
5:46 am 05:46 Cloudy 34 1 32 0 93 93 E 8 13 30.03 1017 9 14.484096 0 0
5:53 am 05:53 Cloudy 33 0.6 32 0 96 96 ENE 5 7 29.94 1014 10 16.09344 0.02 0.508
6:53 am 06:53 Cloudy 34 1.1 32 0 92 92 E 7 11 29.97 1015 10 16.09344 0 0
7:22 am 07:22 Cloudy 34 1.1 33 0.6 97 97 E 7 11 30.03 1017 10 16.09344 0 0
7:53 am 07:53 Cloudy 34 1.1 33 0.6 97 97 E 8 13 29.97 1015 10 16.09344 0 0
8:42 am 08:42 Cloudy 34 1 34 1 100 100 ESE 8 13 30.06 1018 10 16.09344 0 0
8:53 am 08:53 Cloudy 35 1.7 33 0.6 93 93 ESE 8 13 30 1016 10 16.09344 0 0
9:53 am 09:53 Cloudy 35 1.7 33 0.6 93 93 E 8 13 30 1016 10 16.09344 0 0
10:53 am 10:53 Cloudy 36 2.2 34 1.1 93 93 E 6 9 30.03 1017 10 16.09344 0 0
11:53 am 11:53 Cloudy 37 2.8 34 1.1 89 89 NNE 3 6 30.06 1018 10 16.09344 0 0
12:53 pm 12:53 Cloudy with Light Rain 38 3.3 35 1.7 89 89 N 12 19 30.09 1019 4 6.437376 0.001 0.001
1:04 pm 13:04 Cloudy 39 4 36 2 87 87 N 9 15 30.12 1020 10 16.09344 0 0
1:20 pm 13:20 Cloudy 39 4 36 2 87 87 N 13 20 30.12 1020 8 12.874752 0 0
1:48 pm 13:48 Mostly Cloudy 41 5 36 2 81 81 N 12 19 30.09 1019 10 16.09344 0 0
1:53 pm 13:53 Mostly Cloudy 42 5.6 36 2.2 79 79 N 12 19 30.09 1019 10 16.09344 0.001 0.001
2:46 pm 14:46 Mostly Cloudy 44 6.7 35 1.7 71 71 NNW 15 24 30.09 1019 10 16.09344 0 0
2:53 pm 14:53 Mostly Cloudy 44 6.7 33 0.6 65 65 N 16 26 30.09 1019 10 16.09344 0 0
3:53 pm 15:53 Partly Cloudy 46 7.8 31 -0.6 56 56 NW 18 30 30.09 1019 10 16.09344 0 0
4:53 pm 16:53 Sunny 46 7.8 30 -1.1 54 54 NNW 15 24 30.09 1019 10 16.09344 0 0
5:53 pm 17:53 Sunny 46 7.8 29 -1.7 51 51 N 12 19 30.12 1020 10 16.09344 0 0
6:53 pm 18:53 Sunny 44 6.7 29 -1.7 55 55 NNE 8 13 30.12 1020 10 16.09344 0 0
7:53 pm 19:53 Clear 38 3.3 32 0 79 79 ENE 3 6 30.15 1021 10 16.09344 0 0
8:53 pm 20:53 Clear 34 1.1 30 -1.1 85 85 ESE 6 9 30.18 1022 10 16.09344 0 0
9:53 pm 21:53 Clear 33 0.6 30 -1.1 89 89 ESE 6 9 30.21 1023 10 16.09344 0 0
10:53 pm 22:53 Clear 31 -0.6 29 -1.7 92 92 ESE 6 9 30.21 1023 10 16.09344 0 0
11:53 pm 23:53 Clear 30 -1.1 27 -2.8 88 88 SE 5 7 30.21 1023 10 16.09344 0 0

Powered by AerisWeather